Pauls Valley, OK

7:38 AM CDT on June 24, 2017 (GMT -0500)
Pauls Valley Municipal

Weather History for KPVJ - January, 2014

Change the Weather History Date:

Tuesday, January 7, 2014

  Actual Average (KADH) Record (KADH)
Temperature  
Mean Temperature 34 °F -  
Max Temperature 48 °F 47 °F 77 °F (2006)
Min Temperature 19 °F 24 °F 1 °F (1912)
Degree Days  
Heating Degree Days 32    
Moisture  
Dew Point 12 °F    
Average Humidity 43    
Maximum Humidity 63    
Minimum Humidity 25    
Precipitation  
Precipitation 0.00 in - - ()
Sea Level Pressure  
Sea Level Pressure 30.33 in    
Wind  
Wind Speed 11 mph (SSW)    
Max Wind Speed 22 mph    
Max Gust Speed 28 mph    
Visibility 10 miles    
Events      
Averages and records for this station are not official NWS values.
T = Trace of Precipitation, MM = Missing Value Source: NWS Daily Summary

Daily Weather History Graph

Daily Weather History Graph

Search for Another Location

Airport or City:

Trip Planner

Search our weather history database for the weather conditions in past years. The results will help you decide how hot, cold, wet, or windy it might be!

Date:

Astronomy

Jan. 07, 2014 Rise Set
Actual Time 7:36 AM CST 5:33 PM CST
Civil Twilight 7:09 AM CST 6:01 PM CST
Nautical Twilight 6:37 AM CST 6:33 PM CST
Astronomical Twilight 6:07 AM CST 7:03 PM CST
Moon 11:44 AM CST (1/7) No Moon Set
Length of Visible Light 10h 52m
Length of Day
9h 57m
Waxing Crescent, 46% of the Moon is Illuminated
Jan 7
Waxing Crescent
Jan 7
First Quarter
Jan 15
Full
Jan 23
Last Quarter
Jan 30
New

Hourly Weather History & Observations

Time (CST) Temp. Windchill Dew Point Humidity Pressure Visibility Wind Dir Wind Speed Gust Speed Precip Events Conditions
12:15 AM 19.4 °F 12.8 °F 5.0 °F 54% 30.48 in 10.0 mi SW 4.6 mph - N/A   Unknown
12:35 AM 21.2 °F 12.6 °F 5.0 °F 50% 30.48 in 10.0 mi SW 6.9 mph - N/A   Unknown
12:55 AM 21.2 °F 13.6 °F 5.0 °F 50% 30.47 in 10.0 mi SW 5.8 mph - N/A   Unknown
1:15 AM 21.2 °F 12.6 °F 6.8 °F 54% 30.47 in 10.0 mi SW 6.9 mph - N/A   Unknown
1:35 AM 21.2 °F 14.9 °F 6.8 °F 54% 30.46 in 10.0 mi SW 4.6 mph - N/A   Unknown
1:55 AM 21.2 °F 12.6 °F 8.6 °F 58% 30.46 in 10.0 mi SSW 6.9 mph - N/A   Unknown
2:15 AM 21.2 °F 12.6 °F 8.6 °F 58% 30.46 in 10.0 mi SW 6.9 mph - N/A   Unknown
2:35 AM 23.0 °F 13.9 °F 8.6 °F 54% 30.45 in 10.0 mi SSW 8.1 mph - N/A   Unknown
2:55 AM 23.0 °F 13.9 °F 8.6 °F 54% 30.45 in 10.0 mi SW 8.1 mph - N/A   Unknown
3:15 AM 23.0 °F 15.8 °F 8.6 °F 54% 30.45 in 10.0 mi SSW 5.8 mph - N/A   Unknown
3:35 AM 23.0 °F 13.9 °F 8.6 °F 54% 30.45 in 10.0 mi SSW 8.1 mph - N/A   Unknown
3:55 AM 23.0 °F 14.7 °F 8.6 °F 54% 30.43 in 10.0 mi SSW 6.9 mph - N/A   Unknown
4:15 AM 23.0 °F 13.9 °F 8.6 °F 54% 30.43 in 10.0 mi SW 8.1 mph - N/A   Unknown
4:35 AM 23.0 °F 11.7 °F 8.6 °F 54% 30.43 in 10.0 mi SW 11.5 mph - N/A   Unknown
4:55 AM 23.0 °F 11.1 °F 8.6 °F 54% 30.42 in 10.0 mi SW 12.7 mph 16.1 mph N/A   Unknown
5:15 AM 23.0 °F 13.1 °F 8.6 °F 54% 30.42 in 10.0 mi SW 9.2 mph - N/A   Unknown
5:35 AM 23.0 °F 12.4 °F 8.6 °F 54% 30.42 in 10.0 mi SW 10.4 mph - N/A   Unknown
5:55 AM 23.0 °F 12.4 °F 10.4 °F 59% 30.41 in 10.0 mi SW 10.4 mph - N/A   Unknown
6:15 AM 23.0 °F 13.1 °F 10.4 °F 59% 30.40 in 10.0 mi SW 9.2 mph - N/A   Unknown
6:35 AM 23.0 °F 13.9 °F 10.4 °F 59% 30.40 in 10.0 mi SW 8.1 mph - N/A   Unknown
6:55 AM 23.0 °F 13.1 °F 10.4 °F 59% 30.40 in 10.0 mi SSW 9.2 mph - N/A   Unknown
7:15 AM 21.2 °F 10.9 °F 10.4 °F 63% 30.41 in 10.0 mi SSW 9.2 mph - N/A   Unknown
7:35 AM 23.0 °F 11.7 °F 10.4 °F 59% 30.41 in 10.0 mi SSW 11.5 mph 17.3 mph N/A   Unknown
7:55 AM 23.0 °F 13.1 °F 10.4 °F 59% 30.41 in 10.0 mi SSW 9.2 mph - N/A   Unknown
8:15 AM 23.0 °F 12.4 °F 10.4 °F 59% 30.40 in 10.0 mi SSW 10.4 mph - N/A   Unknown
8:35 AM 26.6 °F 16.8 °F 10.4 °F 51% 30.41 in 10.0 mi SSW 10.4 mph - N/A   Unknown
8:55 AM 28.4 °F 20.4 °F 10.4 °F 47% 30.41 in 10.0 mi SSW 8.1 mph - N/A   Unknown
9:15 AM 30.2 °F 21.3 °F 10.4 °F 44% 30.41 in 10.0 mi SW 10.4 mph - N/A   Unknown
9:35 AM 30.2 °F 20.8 °F 12.2 °F 47% 30.41 in 10.0 mi SSW 11.5 mph 17.3 mph N/A   Unknown
9:55 AM 32.0 °F 22.1 °F 12.2 °F 44% 30.41 in 10.0 mi SW 13.8 mph 17.3 mph N/A   Unknown
10:15 AM 33.8 °F 25.3 °F 12.2 °F 41% 30.40 in 10.0 mi SSW 11.5 mph 17.3 mph N/A   Unknown
10:35 AM 35.6 °F 25.5 °F 12.2 °F 38% 30.39 in - SSW 17.3 mph 21.9 mph N/A   Unknown
10:55 AM 37.4 °F 26.6 °F 12.2 °F 36% 30.39 in 10.0 mi SW 21.9 mph 27.6 mph N/A   Unknown
11:15 AM 37.4 °F 27.8 °F 12.2 °F 36% 30.37 in - SSW 17.3 mph 24.2 mph N/A   Unknown
11:35 AM 37.4 °F 28.2 °F 12.2 °F 36% 30.36 in - SSW 16.1 mph - N/A   Unknown
11:55 AM 39.2 °F 30.2 °F 14.0 °F 36% 30.36 in - SSW 17.3 mph 23.0 mph N/A   Unknown
12:15 PM 41.0 °F 33.1 °F 14.0 °F 33% 30.34 in - SSW 15.0 mph 24.2 mph N/A   Unknown
12:35 PM 41.0 °F 32.2 °F 14.0 °F 33% 30.32 in - SW 18.4 mph 25.3 mph N/A   Unknown
12:55 PM 42.8 °F 34.0 °F 14.0 °F 31% 30.31 in - SSW 20.7 mph 25.3 mph N/A   Unknown
1:15 PM 42.8 °F 34.5 °F 14.0 °F 31% 30.28 in - SSW 18.4 mph 26.5 mph N/A   Unknown
1:35 PM 44.6 °F 36.9 °F 14.0 °F 29% 30.27 in - South 18.4 mph 24.2 mph N/A   Unknown
1:55 PM 44.6 °F 36.6 °F 15.8 °F 31% 30.26 in - SSW 19.6 mph 25.3 mph N/A   Unknown
2:15 PM 44.6 °F 36.6 °F 15.8 °F 31% 30.25 in - SSW 19.6 mph 25.3 mph N/A   Unknown
2:35 PM 46.4 °F 39.2 °F 15.8 °F 29% 30.25 in - SSW 18.4 mph 24.2 mph N/A   Unknown
2:55 PM 46.4 °F 39.2 °F 15.8 °F 29% 30.24 in 10.0 mi South 18.4 mph 23.0 mph N/A   Unknown
3:15 PM 46.4 °F 39.8 °F 14.0 °F 27% 30.23 in 10.0 mi South 16.1 mph 19.6 mph N/A   Unknown
3:35 PM 48.2 °F - 14.0 °F 25% 30.22 in 10.0 mi South 16.1 mph 24.2 mph N/A   Unknown
3:55 PM 48.2 °F - 14.0 °F 25% 30.23 in 10.0 mi SSW 17.3 mph 24.2 mph N/A   Unknown
4:15 PM 46.4 °F 39.2 °F 12.2 °F 25% 30.22 in 10.0 mi South 18.4 mph - N/A   Unknown
4:35 PM 46.4 °F 39.5 °F 12.2 °F 25% 30.22 in 10.0 mi South 17.3 mph 25.3 mph N/A   Unknown
4:55 PM 44.6 °F 38.4 °F 12.2 °F 27% 30.21 in 10.0 mi South 12.7 mph 21.9 mph N/A   Unknown
5:15 PM 42.8 °F 36.2 °F 12.2 °F 29% 30.21 in 10.0 mi South 12.7 mph - N/A   Unknown
5:35 PM 41.0 °F 34.3 °F 12.2 °F 31% 30.21 in 10.0 mi South 11.5 mph - N/A   Unknown
5:55 PM 41.0 °F 34.3 °F 14.0 °F 33% 30.20 in 10.0 mi SSE 11.5 mph - N/A   Unknown
6:15 PM 39.2 °F 32.0 °F 14.0 °F 36% 30.20 in 10.0 mi South 11.5 mph - N/A   Unknown
6:35 PM 39.2 °F 30.8 °F 14.0 °F 36% 30.20 in 10.0 mi South 15.0 mph - N/A   Unknown
6:55 PM 37.4 °F 29.3 °F 14.0 °F 38% 30.20 in 10.0 mi SSE 12.7 mph 21.9 mph N/A   Unknown
7:15 PM 37.4 °F 28.2 °F 14.0 °F 38% 30.21 in 10.0 mi South 16.1 mph - N/A   Unknown
7:35 PM 37.4 °F 28.2 °F 14.0 °F 38% 30.22 in - South 16.1 mph - N/A   Unknown
7:55 PM 37.4 °F 28.5 °F 14.0 °F 38% 30.22 in 10.0 mi SSE 15.0 mph 20.7 mph N/A   Unknown
8:15 PM 35.6 °F 26.2 °F 14.0 °F 41% 30.23 in 10.0 mi South 15.0 mph 19.6 mph N/A   Unknown
8:35 PM 35.6 °F 26.6 °F 14.0 °F 41% 30.23 in 10.0 mi South 13.8 mph 20.7 mph N/A   Unknown
8:55 PM 35.6 °F 26.2 °F 12.2 °F 38% 30.22 in 10.0 mi South 15.0 mph 25.3 mph N/A   Unknown
9:15 PM 35.6 °F 26.6 °F 12.2 °F 38% 30.22 in 10.0 mi South 13.8 mph 24.2 mph N/A   Unknown
9:35 PM 35.6 °F 25.5 °F 12.2 °F 38% 30.22 in 10.0 mi South 17.3 mph 23.0 mph N/A   Unknown
9:55 PM 33.8 °F 23.9 °F 12.2 °F 41% 30.21 in 10.0 mi South 15.0 mph 19.6 mph N/A   Unknown
10:15 PM 33.8 °F 23.5 °F 12.2 °F 41% 30.21 in 10.0 mi South 16.1 mph 21.9 mph N/A   Unknown
10:35 PM 33.8 °F 24.8 °F 12.2 °F 41% 30.21 in 10.0 mi South 12.7 mph - N/A   Unknown
10:55 PM 33.8 °F 23.2 °F 12.2 °F 41% 30.21 in 10.0 mi South 17.3 mph - N/A   Unknown
11:15 PM 33.8 °F 23.5 °F 12.2 °F 41% 30.21 in 10.0 mi South 16.1 mph - N/A   Unknown
11:35 PM 32.0 °F 22.5 °F 12.2 °F 44% 30.21 in 10.0 mi SSE 12.7 mph 17.3 mph N/A   Unknown
11:55 PM 32.0 °F 23.0 °F 12.2 °F 44% 30.21 in 10.0 mi SSE 11.5 mph - N/A   Unknown